Dewpoint
60 65 69 69 69 69 69 69 69 70 69 69 69 68 69 69 68 67 67 66 67 65 66 66 66 67 67 67 65 65 65 66 65 66 66 66 65 64 63 64 65 63 63
51 66 69 69 69 69 70 69 70 69 69 68 69 68 69 68 67 67 66 66 66 65 64 67 67 67 67 67 67 68 68 67 66 66 66 66 66 65 65 65 64 63 63
58 67 68 68 68 69 70 70 69 69 70 70 69 69 68 68 68 67 66 66 65 64 63 63 66 67 66 64 64 67 67 67 67 66 66 62 65 66 66 65 67 65 65
64 67 67 68 68 68 69 69 69 68 69 70 70 69 69 67 68 67 66 66 66 66 65 65 66 66 66 65 65 66 66 67 68 66 62 62 63 66 67 67 67 67 67
65 67 67 68 69 68 69 69 69 69 69 69 69 69 68 67 66 66 65 66 66 66 66 66 66 66 65 65 64 65 65 67 67 66 65 65 65 66 65 66 66 65 65
62 63 64 65 67 69 69 69 69 68 68 69 68 68 67 67 67 67 67 67 66 67 66 66 66 67 66 66 65 66 67 67 66 66 66 66 66 65 65 65 65 64 64
49 51 54 65 66 67 68 69 68 68 68 67 68 68 68 67 67 67 67 67 66 67 68 67 67 66 67 67 66 66 67 66 66 66 66 66 65 64 64 63 63 63 63
42 46 52 52 62 67 68 68 67 68 67 67 67 68 69 68 67 66 66 66 66 67 66 67 66 65 66 65 66 66 66 65 66 65 65 64 64 63 62 62 61 61 62
45 45 45 49 53 58 63 66 67 66 66 66 66 66 67 68 67 67 66 67 66 67 66 66 67 66 66 66 67 67 65 64 64 63 63 64 63 62 62 61 60 60 59
41 47 50 50 53 54 56 62 65 66 66 66 66 66 66 66 67 67 67 67 66 67 66 66 67 66 66 67 67 66 64 63 63 62 62 63 63 62 61 60 60 59 60
41 43 49 53 52 53 55 58 62 64 66 66 65 65 65 66 66 67 67 66 65 65 65 65 66 66 66 67 66 64 63 62 61 61 62 62 62 62 62 62 60 59 61
36 38 43 49 53 53 54 58 58 61 64 65 66 65 65 65 65 66 67 66 66 65 65 65 66 66 65 64 64 62 61 61 60 60 61 62 61 62 64 63 63 61 62
36 38 42 45 50 54 54 56 57 59 62 64 65 66 66 66 66 66 67 67 67 65 65 65 65 65 64 63 62 61 60 60 60 60 60 62 61 63 63 62 64 63 64
37 39 42 44 47 52 55 56 56 57 59 63 64 65 65 65 65 65 66 66 66 65 65 65 65 64 64 62 61 60 60 59 59 60 61 61 62 63 63 64 64 64 65
38 40 41 45 46 50 54 55 56 57 58 60 60 63 64 65 65 65 65 66 66 65 64 63 64 63 63 61 60 59 59 59 58 59 60 59 62 63 62 62 62 63 64
39 40 43 44 48 51 53 54 55 56 58 59 60 61 64 64 64 64 64 64 65 64 63 62 63 62 62 60 59 59 58 58 57 58 58 58 61 63 62 61 61 61 63
39 41 43 45 50 52 53 54 55 56 58 59 59 60 60 61 62 63 63 63 64 64 62 62 62 62 61 59 58 58 58 57 57 57 56 57 59 62 62 62 61 60 60
43 45 46 48 50 52 53 54 54 54 56 57 58 58 58 59 60 60 61 62 63 63 62 61 61 60 60 59 58 57 57 56 56 56 58 59 61 61 61 61 61 59 59
46 47 49 51 50 52 53 53 53 52 53 54 55 56 57 57 58 58 58 60 61 62 61 60 60 59 59 58 57 57 56 55 55 54 58 59 60 60 60 59 58 57 58
47 48 49 50 51 51 53 53 52 52 52 52 52 52 52 53 55 56 56 57 59 60 60 60 59 59 58 57 56 55 55 55 54 54 56 56 57 58 57 58 56 55 56
45 47 48 49 50 52 51 51 51 51 52 52 52 53 52 52 52 53 54 55 57 58 60 59 58 57 57 57 53 51 51 53 53 52 53 54 54 55 55 54 54 54 55
43 46 47 48 50 51 52 52 51 52 52 52 52 52 52 52 53 53 54 55 55 57 58 59 57 55 55 55 54 51 49 49 51 51 51 51 52 52 52 52 52 52 54
43 45 48 49 50 51 51 51 51 51 51 50 50 51 51 51 52 53 53 55 55 57 57 58 57 55 53 55 55 52 48 48 49 47 50 50 51 51 51 51 52 52 53
44 47 49 49 50 51 52 51 51 50 48 49 49 50 51 51 51 52 53 54 55 56 56 57 57 56 54 53 53 52 50 48 48 45 46 48 50 50 50 49 50 51 52
46 47 49 50 50 52 52 52 51 50 50 50 50 50 50 51 51 52 52 53 54 55 56 57 56 56 54 53 53 49 47 49 48 48 45 45 46 48 49 49 49 50 50
46 48 49 50 50 51 51 52 51 51 50 50 51 50 50 50 51 52 52 52 54 54 55 55 56 55 54 54 53 49 48 48 46 47 47 46 48 46 47 47 48 48 48
Wind_Speed
1 5 5 8 10 10 9 8 8 8 9 13 17 17 18 19 18 18 16 15 14 14 14 14 16 16 16 16 17 16 16 14 16 16 16 15 16 15 15 14 13 15 16
3 5 5 5 9 9 10 10 9 9 9 13 15 16 18 18 17 17 16 15 14 14 14 14 15 14 16 17 16 15 14 13 14 14 15 14 13 14 14 12 10 14 14
4 6 4 3 4 7 9 11 10 10 10 11 14 16 15 15 15 15 15 15 14 14 13 13 13 14 14 14 13 13 13 13 14 14 13 12 13 14 12 10 9 13 12
6 5 3 3 3 5 5 9 11 10 11 12 14 14 16 15 16 15 14 14 14 14 14 13 13 15 14 14 14 13 12 12 13 12 11 11 12 14 16 16 18 18 19
4 3 2 3 5 5 6 8 9 11 11 11 13 15 15 16 16 15 14 14 14 13 14 15 15 15 15 14 14 13 12 11 11 9 9 9 12 15 15 15 15 16 15
4 2 1 4 9 7 7 8 10 12 12 13 11 12 15 15 16 18 17 15 14 14 14 16 15 16 16 15 16 12 12 10 10 8 7 13 15 16 14 13 14 14 14
2 0 2 6 4 10 8 7 10 11 12 13 14 13 13 15 16 15 17 16 15 16 16 15 15 17 16 16 17 13 12 11 12 11 12 12 14 14 12 12 11 11 12
2 3 3 6 6 2 7 10 10 11 13 13 14 15 14 14 14 15 14 15 16 17 16 16 16 18 16 14 14 13 13 13 14 16 9 11 14 14 11 11 10 11 11
4 4 4 5 6 5 3 6 9 13 14 14 14 14 16 14 14 14 15 17 19 19 18 17 17 17 18 15 14 15 15 13 13 14 13 9 12 13 11 10 10 11 11
9 7 6 6 5 5 5 4 5 9 14 15 15 16 15 15 15 14 16 18 21 22 21 18 17 16 15 17 17 17 16 14 11 10 8 10 12 12 11 11 12 12 12
9 10 8 8 8 6 5 5 4 5 8 14 16 17 16 14 13 14 15 16 21 24 23 21 18 16 14 16 19 21 19 11 11 9 8 10 10 10 12 12 13 13 14
9 9 8 8 10 7 6 5 4 5 5 6 11 13 14 14 13 13 14 17 21 25 23 22 19 16 16 13 14 21 14 13 11 10 8 10 10 12 11 12 15 14 13
7 9 8 7 7 8 8 6 5 3 4 4 7 10 12 11 11 12 10 13 16 21 17 19 17 15 16 13 15 15 15 14 11 10 11 11 12 12 14 14 13 13 12
8 10 7 6 7 9 8 7 5 4 3 4 4 6 8 10 11 11 11 12 16 16 18 16 14 15 17 15 16 16 16 14 12 10 11 13 13 15 17 17 12 12 15
11 11 10 6 7 8 9 8 6 4 4 4 4 5 8 8 9 11 12 13 16 16 16 16 15 17 17 17 16 17 17 15 15 11 9 14 11 15 18 19 13 12 14
11 12 9 8 6 6 8 9 7 5 4 4 4 4 5 9 10 10 12 13 15 16 15 18 18 17 17 17 18 17 17 16 15 14 11 11 10 16 17 22 16 12 13
10 10 11 10 6 6 7 9 7 5 4 4 4 3 3 4 8 9 13 13 14 16 15 14 14 15 15 16 18 18 16 17 16 15 12 10 10 12 14 20 19 16 12
9 11 10 8 7 7 6 7 7 5 5 4 3 3 4 4 3 5 2 10 14 15 16 15 18 15 14 17 17 16 16 15 17 15 11 10 10 11 11 16 18 16 13
10 10 10 9 9 8 6 6 6 6 6 5 4 4 5 6 6 5 5 5 5 11 15 18 16 22 17 15 17 15 14 15 17 14 12 11 12 11 10 14 17 16 10
8 9 10 11 10 5 4 4 4 5 6 5 6 7 9 10 11 11 11 10 8 8 10 17 23 13 16 17 13 14 11 12 11 15 15 13 14 14 12 9 13 11 14
8 7 8 10 8 3 3 4 6 8 6 8 9 10 11 12 13 14 14 13 13 13 11 12 17 22 17 19 16 5 4 7 12 13 9 11 14 13 12 12 11 10 9
9 9 11 11 7 7 8 6 5 5 7 7 8 11 14 14 15 15 16 15 16 14 16 16 18 18 9 21 17 10 7 3 8 9 9 10 13 11 13 11 11 10 7
6 8 10 10 9 8 9 7 6 3 2 5 8 10 13 13 15 17 17 17 17 17 18 19 17 24 15 18 22 12 7 10 11 3 9 9 12 11 11 12 12 11 9
4 5 7 8 9 9 9 10 11 11 12 12 13 12 15 16 17 17 18 19 19 17 19 20 23 24 19 23 12 13 10 7 14 8 3 6 7 10 12 10 12 12 11
5 6 5 6 9 10 10 13 12 13 13 14 14 16 17 16 17 17 17 18 20 19 20 20 24 27 27 27 22 12 10 8 14 8 9 8 4 7 9 12 12 12 12
5 5 5 6 9 10 11 14 16 16 15 14 15 16 16 13 13 17 17 17 18 21 23 22 25 26 26 26 24 20 16 11 17 10 12 11 16 7 9 9 12 12 12
Wind_Direction
38 194 179 167 152 154 148 144 143 130 133 143 156 157 147 141 142 141 137 134 136 134 126 133 137 131 126 122 119 119 124 124 121 116 112 111 113 112 107 95 100 104 112
294 154 156 171 163 166 172 164 158 153 147 151 156 157 151 149 151 149 145 145 142 139 135 122 125 126 124 121 118 114 110 109 116 113 111 103 109 115 110 102 104 106 107
164 155 152 171 180 177 186 178 180 171 160 148 155 165 156 158 152 157 153 153 151 144 142 135 130 124 120 120 123 118 116 108 113 119 113 122 119 117 115 118 122 132 131
147 164 175 195 210 196 199 194 187 190 178 164 165 169 163 162 160 164 161 161 158 153 147 142 136 128 126 126 126 124 123 114 116 116 122 124 125 119 116 102 91 98 86
133 158 207 256 250 230 208 201 200 195 190 187 185 178 179 173 172 169 172 169 162 160 153 147 138 134 135 133 130 128 129 127 125 133 130 135 136 127 105 101 100 95 94
121 130 225 270 248 246 233 215 210 206 204 197 199 203 190 184 181 175 178 175 166 153 150 144 144 145 144 143 137 128 131 133 140 132 138 132 116 106 109 106 105 109 109
154 269 344 349 266 223 228 232 225 218 219 213 200 199 198 195 188 184 178 173 164 152 144 146 154 156 154 151 149 134 129 132 137 129 113 123 115 113 113 111 111 117 119
214 261 291 322 338 223 241 234 228 228 221 221 215 204 203 204 198 194 186 181 171 160 158 163 160 160 160 158 148 138 132 132 136 127 124 121 121 119 122 121 120 126 126
249 253 269 289 304 311 273 245 247 229 225 218 219 218 213 208 204 198 188 187 183 171 167 172 168 163 156 150 146 145 144 137 129 130 130 117 122 127 129 125 126 131 134
274 261 253 265 274 290 296 286 271 248 230 221 219 220 221 219 212 211 204 199 193 181 173 171 174 169 161 150 146 145 143 136 133 126 126 131 136 136 136 133 130 137 139
263 256 251 251 254 262 282 288 289 285 257 233 224 221 219 221 222 219 210 207 198 197 182 169 172 170 159 151 148 145 151 154 149 147 148 146 145 149 151 154 143 146 145
259 261 253 253 251 254 259 273 279 278 272 249 228 221 221 222 221 212 210 209 206 196 192 171 169 165 160 167 156 149 161 157 163 162 161 164 165 160 162 150 151 148 151
250 267 265 264 265 251 246 250 263 272 276 266 239 226 223 217 217 215 206 206 204 191 189 172 170 175 177 176 170 168 162 162 169 173 169 186 177 172 153 135 135 152 155
260 261 265 271 264 257 249 238 243 256 273 257 263 249 227 219 214 213 206 196 195 190 183 172 176 177 176 178 178 173 169 170 170 178 170 192 183 162 147 125 126 141 139
256 261 265 270 275 264 243 240 231 225 242 258 251 262 241 222 215 207 206 193 185 181 178 172 176 179 179 179 181 180 175 173 169 165 173 189 183 166 149 135 134 129 126
262 264 275 277 268 257 241 230 230 223 229 232 236 236 249 231 213 205 206 198 191 186 186 179 180 182 182 180 183 184 180 174 169 167 174 183 173 165 165 145 148 144 136
261 275 283 293 288 258 244 224 215 213 210 214 212 202 214 234 219 207 197 197 196 194 184 176 174 183 178 180 188 184 179 177 171 171 163 183 172 165 173 153 155 152 147
261 276 292 294 296 281 249 220 210 201 202 206 222 220 203 211 228 159 215 209 197 198 180 187 176 165 183 179 185 189 180 176 173 169 164 165 158 161 176 178 151 160 163
268 283 287 289 282 274 261 220 209 207 212 207 219 231 234 231 236 236 194 203 242 206 192 177 199 172 176 183 182 183 187 176 171 167 167 155 148 141 146 153 141 143 158
265 288 289 287 284 272 226 207 208 216 214 224 241 244 242 243 249 250 245 236 208 234 198 193 173 169 180 161 182 174 184 181 167 174 173 153 151 154 155 151 136 143 159
274 280 296 292 288 230 200 211 224 233 219 225 222 243 252 242 237 236 240 239 214 208 213 203 183 184 177 156 134 131 137 165 181 171 161 162 153 160 156 159 145 140 154
268 282 293 283 261 223 215 218 218 227 235 237 231 243 240 248 241 233 234 230 226 213 205 191 187 159 176 168 165 164 176 121 221 167 167 172 159 160 163 164 145 150 154
255 288 291 283 255 222 223 221 219 231 268 274 255 261 244 242 247 237 226 232 229 218 214 189 189 179 176 176 175 167 161 195 157 194 190 177 166 166 161 160 158 166 175
277 283 279 272 249 237 215 218 221 231 243 245 255 249 248 237 236 236 232 227 226 222 219 208 189 188 176 184 181 170 174 150 179 169 201 185 175 170 173 170 169 175 181
298 293 281 264 244 241 233 225 227 235 239 257 255 247 246 240 229 234 233 229 228 226 219 211 199 193 192 183 183 167 197 176 171 163 178 175 187 194 188 184 179 184 186
322 306 296 284 267 253 246 236 232 233 247 256 245 247 242 233 232 234 228 230 229 232 226 217 205 197 192 192 182 175 171 174 173 163 179 181 186 198 202 202 201 194 191